| time (UTC) | temp F | wind direction | speed MPH | gust MPH | rain 1hr in | rain 24hr in | rain mn in | humidity % | barometer mb |
| 20260505090006 | 61 | 206 | 3.0 | 9.0 | 0.00 | 0.00 | 0.00 | 73 | 992.2 |
| 20260505084501 | 61 | 214 | 1.0 | 10.0 | 0.00 | 0.00 | 0.00 | 73 | 992.0 |
| 20260505081503 | 61 | 136 | 1.0 | 8.0 | 0.00 | 0.00 | 0.00 | 72 | 992.2 |
| 20260505080002 | 62 | 147 | 1.0 | 7.0 | 0.00 | 0.00 | 0.00 | 71 | 992.4 |
| 20260505070000 | 63 | 285 | 4.0 | 10.0 | 0.00 | 0.00 | 0.00 | 67 | 993.1 |
| 20260505063004 | 63 | 301 | 4.0 | 10.0 | 0.00 | 0.00 | 0.00 | 68 | 992.9 |
| 20260505054504 | 64 | 170 | 0.0 | 4.0 | 0.00 | 0.00 | 0.00 | 67 | 993.3 |
| 20260505053000 | 64 | 110 | 0.0 | 5.0 | 0.00 | 0.00 | 0.00 | 66 | 993.5 |
| 20260505051500 | 64 | 200 | 0.0 | 3.0 | 0.00 | 0.00 | 0.00 | 65 | 993.5 |
| 20260505041501 | 66 | 210 | 1.0 | 8.0 | 0.00 | 0.00 | 0.00 | 61 | 993.1 |
| 20260505040004 | 66 | 231 | 5.0 | 9.0 | 0.00 | 0.00 | 0.00 | 61 | 993.1 |
| 20260505034510 | 66 | 207 | 3.0 | 9.0 | 0.00 | 0.00 | 0.00 | 61 | 993.1 |
| 20260505033001 | 67 | 251 | 2.0 | 7.0 | 0.00 | 0.00 | 0.00 | 61 | 993.2 |
| 20260505031502 | 67 | 152 | 1.0 | 6.0 | 0.00 | 0.00 | 0.00 | 61 | 993.0 |
| 20260505030004 | 67 | 172 | 1.0 | 5.0 | 0.00 | 0.00 | 0.00 | 60 | 993.0 |
| 20260505024500 | 68 | 194 | 0.0 | 6.0 | 0.00 | 0.00 | 0.00 | 60 | 992.9 |
| 20260505023002 | 68 | 206 | 2.0 | 6.0 | 0.00 | 0.00 | 0.00 | 59 | 992.9 |
| 20260505021502 | 69 | 138 | 0.0 | 4.0 | 0.00 | 0.00 | 0.00 | 58 | 993.0 |
| 20260505020006 | 69 | 154 | 0.0 | 3.0 | 0.00 | 0.00 | 0.00 | 56 | 992.9 |
| 20260505013005 | 70 | 198 | 1.0 | 8.0 | 0.00 | 0.00 | 0.00 | 54 | 992.8 |
| 20260505010002 | 72 | 220 | 3.0 | 10.0 | 0.00 | 0.00 | 0.00 | 52 | 992.8 |
| 20260505000003 | 75 | 214 | 4.0 | 10.0 | 0.00 | 0.00 | 0.00 | 47 | 992.4 |
| 20260504234504 | 75 | 222 | 9.0 | 18.0 | 0.00 | 0.00 | 0.00 | 48 | 992.5 |
| 20260504233004 | 76 | 208 | 11.0 | 18.0 | 0.00 | 0.00 | 0.00 | 47 | 992.5 |
| 20260504230006 | 76 | 214 | 11.0 | 19.0 | 0.00 | 0.00 | 0.00 | 47 | 992.5 |
| 20260504224507 | 75 | 238 | 11.0 | 24.0 | 0.00 | 0.00 | 0.00 | 46 | 992.7 |
| 20260504221501 | 77 | 207 | 13.0 | 20.0 | 0.00 | 0.00 | 0.00 | 43 | 992.7 |
| 20260504220003 | 77 | 210 | 11.0 | 21.0 | 0.00 | 0.00 | 0.00 | 47 | 992.7 |
| 20260504214501 | 77 | 228 | 17.0 | 26.0 | 0.00 | 0.00 | 0.00 | 45 | 992.6 |
| 20260504213009 | 77 | 218 | 13.0 | 22.0 | 0.00 | 0.00 | 0.00 | 44 | 992.9 |
| 20260504210002 | 76 | 215 | 14.0 | 23.0 | 0.00 | 0.00 | 0.00 | 44 | 993.1 |
| 20260504193003 | 76 | 213 | 14.0 | 22.0 | 0.00 | 0.00 | 0.00 | 48 | 994.2 |
| 20260504180007 | 75 | 222 | 10.0 | 20.0 | 0.00 | 0.00 | 0.00 | 57 | 995.0 |
| 20260504173002 | 75 | 199 | 18.0 | 22.0 | 0.00 | 0.00 | 0.00 | 54 | 995.5 |